Weather History for Childress, TX

Change the Weather History Date:

Saturday, August 4, 2012

  Actual Average Record
Temperature  
Mean Temperature 92 °F 83 °F  
Max Temperature 107 °F 96 °F 109 °F (1943)
Min Temperature 77 °F 71 °F 61 °F (1907)
Degree Days  
Heating Degree Days 0 0  
Month to date heating degree days 0 0  
Since 1 June heating degree days 0 2  
Since 1 July heating degree days 0 0  
Cooling Degree Days 27 18  
Month to date cooling degree days 113 72  
Year to date cooling degree days 1921 1374  
Since 1 June cooling degree days 1317 1062  
Growing Degree Days 42 (Base 50)    
Moisture  
Dew Point 53 °F    
Average Humidity 29    
Maximum Humidity 43    
Minimum Humidity 15    
Precipitation  
Precipitation 0.00 in 0.09 in 1.95 in (1999)
Month to date precipitation 0.00 0.32  
Year to date precipitation 11.37 14.79  
Sea Level Pressure  
Sea Level Pressure 29.81 in    
Wind  
Wind Speed 12 mph (SSW)    
Max Wind Speed 22 mph    
Max Gust Speed 35 mph    
Visibility 10 miles    
Events      
T = Trace of Precipitation, MM = Missing Value Source: NWS Daily Summary

Daily Weather History Graph

Daily Weather History Graph

Search for Another Location

Airport:

Trip Planner

Search our weather history database for the weather conditions in past years. The results will help you decide how hot, cold, wet, or windy it might be!

Date:

Astronomy

Aug. 04, 2012 Rise Set
Actual Time 6:54 AM CDT 8:39 PM CDT
Civil Twilight 6:26 AM CDT 9:06 PM CDT
Nautical Twilight 5:54 AM CDT 9:39 PM CDT
Astronomical Twilight 5:19 AM CDT 10:14 PM CDT
Moon 10:01 PM CDT (8/4) 9:33 AM CDT (8/4)
Length of Visible Light 14h 39m
Length of Day
13h 45m
Waning Gibbous, 92% of the Moon is Illuminated
Aug 4
Waning Gibbous
Aug 9
Last Quarter
Aug 17
New
Aug 24
First Quarter
Aug 31
Full

Hourly Weather History & Observations

Time (CDT) Temp. Heat Index Dew Point Humidity Pressure Visibility Wind Dir Wind Speed Gust Speed Precip Events Conditions
12:53 AM 88.0 °F - 51.1 °F 28% 29.73 in 10.0 mi South 10.4 mph - N/A   Clear
1:53 AM 88.0 °F - 52.0 °F 29% 29.73 in 10.0 mi South 12.7 mph - N/A   Clear
2:53 AM 88.0 °F 85.7 °F 53.1 °F 30% 29.73 in 10.0 mi South 15.0 mph - N/A   Clear
3:53 AM 87.1 °F 85.1 °F 54.0 °F 32% 29.75 in 10.0 mi SSW 12.7 mph - N/A   Clear
4:53 AM 82.9 °F 81.9 °F 54.0 °F 37% 29.78 in 10.0 mi West 5.8 mph - N/A   Clear
5:53 AM 80.1 °F 80.1 °F 55.0 °F 42% 29.80 in 10.0 mi WSW 4.6 mph - N/A   Clear
6:53 AM 77.0 °F - 54.0 °F 45% 29.81 in 10.0 mi South 10.4 mph - N/A   Clear
7:53 AM 81.0 °F 80.8 °F 55.9 °F 42% 29.82 in 10.0 mi South 9.2 mph - N/A   Clear
8:53 AM 87.1 °F 85.9 °F 57.0 °F 36% 29.83 in 10.0 mi SSW 11.5 mph - N/A   Clear
9:53 AM 91.9 °F 90.6 °F 57.0 °F 31% 29.84 in 10.0 mi SSW 17.3 mph 23.0 mph N/A   Clear
10:53 AM 95.0 °F 93.7 °F 57.0 °F 28% 29.85 in 10.0 mi SW 15.0 mph 20.7 mph N/A   Clear
11:53 AM 100.0 °F 98.8 °F 55.9 °F 23% 29.84 in 10.0 mi SSW 16.1 mph 25.3 mph N/A   Clear
12:53 PM 102.0 °F 100.6 °F 55.0 °F 21% 29.82 in 10.0 mi SW 13.8 mph 20.7 mph N/A   Clear
1:53 PM 105.1 °F - 52.0 °F 17% 29.82 in 9.0 mi SSW 11.5 mph 19.6 mph N/A   Clear
2:53 PM 105.1 °F 103.3 °F 53.1 °F 18% 29.81 in 10.0 mi South 15.0 mph 21.9 mph N/A   Clear
3:53 PM 106.0 °F - 52.0 °F 17% 29.79 in 10.0 mi South 12.7 mph 23.0 mph N/A   Clear
4:53 PM 106.0 °F - 48.0 °F 14% 29.80 in 10.0 mi South 17.3 mph 23.0 mph N/A   Clear
5:53 PM 105.1 °F - 48.9 °F 15% 29.80 in 10.0 mi South 11.5 mph 18.4 mph N/A   Clear
6:53 PM 102.9 °F - 50.0 °F 17% 29.80 in 10.0 mi South 10.4 mph - N/A   Clear
7:53 PM 100.0 °F - 51.1 °F 19% 29.81 in 10.0 mi South 9.2 mph - N/A   Clear
8:53 PM 98.1 °F - 51.1 °F 20% 29.82 in 10.0 mi SSE 12.7 mph - N/A   Clear
9:53 PM 95.0 °F - 52.0 °F 23% 29.85 in 10.0 mi SSE 11.5 mph - N/A   Clear
10:53 PM 93.0 °F - 52.0 °F 25% 29.88 in 10.0 mi SSE 9.2 mph - N/A   Scattered Clouds
11:53 PM 89.1 °F 86.7 °F 53.1 °F 29% 29.91 in 10.0 mi NNW 4.6 mph - N/A   Mostly Cloudy